Date String (YYYY-MM-DD hh:mm:ss) UTC,Instrument flags,Ambient pressure (hPa),Sample flow (lpm),Bypass flow (lpm),Sample temperature (°C),Ambient temperature (°C),ASC tube jacket temperature (°C),LED temperature (°C),Box temperature (°C),Sample RH (%),Span deviation,Mass concentration (μg/m³),Mass concentration (μg/m³),Mass concentration (μg/m³)
DateTimeUTC,F1_M11,P_M11,Q1_M11,Q2_M11,T1_M11,T2_M11,T3_M11,T4_M11,T5_M11,U1_M11,ZSPAN_M11,X0_M11,X2_M11,X1_M11
2022-12-02 18:00:00,,0816.1,5.00,0.00,21.6,20.5,00.0,30.5,23.4,17.0,0000.0,0001.61,0000.31,0000.10
2022-12-02 18:01:00,,0815.7,5.00,0.00,21.6,20.5,00.0,30.5,23.4,17.0,0000.0,0001.42,0000.31,0000.11
2022-12-02 18:02:00,,0815.7,5.00,0.00,21.6,20.5,00.0,30.5,23.3,17.2,0000.0,0001.38,0000.30,0000.11
2022-12-02 18:03:00,,0815.6,5.00,0.00,21.7,20.5,00.0,30.5,23.4,17.2,0000.0,0001.48,0000.33,0000.11
2022-12-02 18:04:00,,0815.8,5.00,0.00,21.7,20.5,00.0,30.6,23.4,17.5,0000.0,0001.78,0000.37,0000.11
2022-12-02 18:05:00,,0816.1,5.00,0.00,21.7,20.5,00.0,30.6,23.4,16.8,0000.0,0001.91,0000.33,0000.11
2022-12-02 18:06:00,,0816.0,5.00,0.00,21.7,20.5,00.0,30.6,23.4,16.5,0000.0,0002.02,0000.33,0000.11
2022-12-02 18:07:00,,0816.1,5.00,0.00,21.7,20.5,00.0,30.6,23.4,16.8,0000.0,0001.92,0000.33,0000.11
2022-12-02 18:08:00,,0816.0,5.00,0.00,21.7,20.5,00.0,30.6,23.4,16.6,0000.0,0001.74,0000.30,0000.10
2022-12-02 18:09:00,,0815.9,5.00,0.00,21.7,20.5,00.0,30.6,23.5,16.5,0000.0,0001.27,0000.29,0000.10
2022-12-02 18:10:00,,0816.0,5.00,0.00,21.7,20.5,00.0,30.6,23.4,16.1,0000.0,0001.29,0000.29,0000.11
2022-12-02 18:11:00,,0815.9,5.00,0.00,21.7,20.5,00.0,30.6,23.5,16.3,0000.0,0001.22,0000.27,0000.10
2022-12-02 18:12:00,,0815.7,5.00,0.00,21.7,20.6,00.0,30.6,23.5,16.4,0000.0,0001.17,0000.27,0000.10
2022-12-02 18:13:00,,0815.7,5.00,0.00,21.7,20.6,00.0,30.6,23.5,16.3,0000.0,0001.23,0000.28,0000.10
2022-12-02 18:14:00,,0815.7,5.00,0.00,21.7,20.6,00.0,30.6,23.4,16.1,0000.0,0001.12,0000.25,0000.10
2022-12-02 18:15:00,,0815.7,5.00,0.00,21.7,20.6,00.0,30.6,23.5,16.2,0000.0,0000.89,0000.21,0000.09
2022-12-02 18:16:00,,0815.6,5.00,0.00,21.7,20.6,00.0,30.6,23.4,16.0,0000.0,0000.55,0000.20,0000.09
2022-12-02 18:17:00,,0815.9,5.00,0.00,21.7,20.6,00.0,30.6,23.5,15.7,0000.0,0000.44,0000.20,0000.09
2022-12-02 18:18:00,,0816.0,5.00,0.00,21.7,20.6,00.0,30.6,23.5,15.6,0000.0,0000.40,0000.21,0000.08
2022-12-02 18:19:00,,0816.0,5.00,0.00,21.8,20.6,00.0,30.6,23.5,15.5,0000.0,0000.43,0000.23,0000.08
2022-12-02 18:20:00,,0816.0,5.00,0.00,21.8,20.6,00.0,30.7,23.5,15.2,0000.0,0000.44,0000.24,0000.09
2022-12-02 18:21:00,,0815.7,5.00,0.00,21.8,20.6,00.0,30.7,23.5,15.7,0000.0,0000.45,0000.24,0000.09
2022-12-02 18:22:00,,0815.6,5.00,0.00,21.8,20.6,00.0,30.7,23.5,15.7,0000.0,0000.43,0000.23,0000.09
2022-12-02 18:23:00,,0815.7,4.99,0.00,21.8,20.6,00.0,30.7,23.5,15.9,0000.0,0000.45,0000.24,0000.09
2022-12-02 18:24:00,,0815.7,5.00,0.00,21.8,20.6,00.0,30.7,23.5,15.6,0000.0,0000.39,0000.21,0000.08
2022-12-02 18:25:00,,0815.8,5.00,0.00,21.8,20.6,00.0,30.7,23.4,15.7,0000.0,0000.42,0000.22,0000.08
2022-12-02 18:26:00,,0815.8,5.01,0.00,21.8,20.6,00.0,30.7,23.5,15.8,0000.0,0000.40,0000.21,0000.08
2022-12-02 18:27:00,,0815.8,5.01,0.00,21.8,20.5,00.0,30.7,23.5,15.4,0000.0,0000.37,0000.20,0000.08
2022-12-02 18:28:00,,0815.8,5.00,0.00,21.8,20.6,00.0,30.7,23.5,15.7,0000.0,0000.36,0000.18,0000.08
2022-12-02 18:29:00,,0815.8,5.00,0.00,21.8,20.6,00.0,30.7,23.5,15.5,0000.0,0000.38,0000.18,0000.08
2022-12-02 18:30:00,,0816.0,5.00,0.00,21.8,20.6,00.0,30.7,23.5,15.5,0000.0,0000.37,0000.17,0000.08
2022-12-02 18:31:00,,0816.0,5.00,0.00,21.8,20.5,00.0,30.7,23.5,15.2,0000.0,0000.44,0000.17,0000.07
2022-12-02 18:32:00,,0816.1,5.00,0.00,21.8,20.5,00.0,30.7,23.5,15.7,0000.0,0000.51,0000.18,0000.07
2022-12-02 18:33:00,,0816.2,5.00,0.00,21.8,20.5,00.0,30.7,23.5,16.4,0000.0,0001.34,0000.19,0000.07
2022-12-02 18:34:00,,0816.2,4.99,0.00,21.8,20.5,00.0,30.7,23.5,16.0,0000.0,0001.53,0000.22,0000.07
2022-12-02 18:35:00,,0816.3,4.99,0.00,21.8,20.5,00.0,30.7,23.5,15.4,0000.0,0001.53,0000.22,0000.07
2022-12-02 18:36:00,,0816.2,5.00,0.00,21.8,20.6,00.0,30.7,23.5,15.3,0000.0,0001.54,0000.23,0000.07
2022-12-02 18:37:00,,0816.3,5.00,0.00,21.8,20.6,00.0,30.7,23.5,16.0,0000.0,0001.58,0000.25,0000.08
2022-12-02 18:38:00,,0816.4,5.00,0.00,21.8,20.6,00.0,30.7,23.5,17.5,0000.0,0001.74,0000.27,0000.08
2022-12-02 18:39:00,,0816.3,5.00,0.00,21.8,20.6,00.0,30.7,23.5,17.7,0000.0,0002.14,0000.30,0000.08
2022-12-02 18:40:00,,0816.3,5.01,0.00,21.8,20.6,00.0,30.7,23.6,17.4,0000.0,0002.44,0000.36,0000.09
2022-12-02 18:41:00,,0816.3,5.01,0.00,21.8,20.6,00.0,30.7,23.6,17.2,0000.0,0002.56,0000.39,0000.09
2022-12-02 18:42:00,,0816.5,5.00,0.00,21.8,20.5,00.0,30.7,23.6,16.0,0000.0,0002.66,0000.45,0000.09
2022-12-02 18:43:00,,0816.6,4.99,0.00,21.8,20.5,00.0,30.7,23.6,15.6,0000.0,0002.68,0000.47,0000.09
2022-12-02 18:44:00,,0816.8,4.99,0.00,21.8,20.5,00.0,30.7,23.6,15.6,0000.0,0001.77,0000.46,0000.09
2022-12-02 18:45:00,,0816.8,5.01,0.00,21.8,20.5,00.0,30.7,23.6,15.7,0000.0,0001.75,0000.46,0000.09
2022-12-02 18:46:00,,0816.8,5.01,0.00,21.8,20.5,00.0,30.7,23.6,15.5,0000.0,0001.91,0000.51,0000.10
2022-12-02 18:47:00,,0816.9,4.98,0.00,21.8,20.4,00.0,30.7,23.5,15.6,0000.0,0002.01,0000.54,0000.11
2022-12-02 18:48:00,,0816.9,5.01,0.00,21.8,20.4,00.0,30.7,23.5,15.5,0000.0,0002.17,0000.60,0000.11
2022-12-02 18:49:00,,0817.2,5.01,0.00,21.8,20.4,00.0,30.7,23.5,15.0,0000.0,0002.20,0000.63,0000.11
2022-12-02 18:50:00,,0817.2,4.99,0.00,21.7,20.4,00.0,30.7,23.5,15.0,0000.0,0001.87,0000.62,0000.11
2022-12-02 18:51:00,,0817.3,5.00,0.00,21.7,20.4,00.0,30.7,23.5,14.4,0000.0,0001.58,0000.56,0000.11
2022-12-02 18:52:00,,0817.5,4.99,0.00,21.7,20.4,00.0,30.7,23.4,14.2,0000.0,0001.52,0000.54,0000.12
2022-12-02 18:53:00,,0817.6,5.00,0.00,21.7,20.4,00.0,30.7,23.4,14.2,0000.0,0001.47,0000.51,0000.12
2022-12-02 18:54:00,,0817.5,5.00,0.00,21.7,20.4,00.0,30.7,23.5,13.8,0000.0,0001.46,0000.52,0000.12
2022-12-02 18:55:00,,0817.6,5.00,0.00,21.7,20.4,00.0,30.7,23.5,13.4,0000.0,0001.43,0000.52,0000.12
2022-12-02 18:56:00,,0817.6,5.00,0.00,21.7,20.4,00.0,30.7,23.4,13.9,0000.0,0001.38,0000.51,0000.12
2022-12-02 18:57:00,,0817.5,5.00,0.00,21.7,20.4,00.0,30.7,23.4,14.3,0000.0,0001.19,0000.45,0000.11
2022-12-02 18:58:00,,0817.5,5.00,0.00,21.7,20.4,00.0,30.7,23.4,14.6,0000.0,0001.08,0000.42,0000.11
2022-12-02 18:59:00,,0817.7,5.00,0.00,21.7,20.3,00.0,30.7,23.4,14.7,0000.0,0000.88,0000.34,0000.11
